sat.trackr.live / text

‹ back to catalog

STARLINK-2065

NORAD 47672 · 2021-012BE

PAYLOAD ACTIVE UNKNOWN

§ Identity

Operator
Country
US
Launch date
2021-02-16
Launch site
AFETR
Launch vehicle
Mass (kg)
RCS (m²)

Purposes: comms

External: N2YO · Heavens-Above · Gunter

§ Orbital elements

Epoch: 2026-06-12T03:25:19.967808Z

Period
88.11 min
Inclination
53.1285°
Eccentricity
0.0010590
Mean motion
16.34373482 rev/d
Perigee alt
173.9 km
Apogee alt
187.8 km
Semi-major
6,558.9 km
B*
8.0131e-4
RAAN
252.4218°
Arg perigee
317.6369°
Mean anomaly
42.3858°
Rev number
29,584

§ Raw data

STARLINK-20651 47672U 21012BE  26163.14259222  .05924798  12285-4  80131-3 0  99992 47672  53.1285 252.4218 0010590 317.6369  42.3858 16.34373482295845

JSON: /api/v1/satellites/47672 · /tle

For live sub-satellite position, see the globe view (requires WebGL).

§ Visibility from observer

Set your observer location to see the next 7 days of passes ≥ 10°. The values pass through the URL so the page stays shareable.

No JS? Fill the form by hand. The geolocation button needs JavaScript.